Weather History for Enid, OK

Change the Weather History Date:

Monday, December 31, 2012

  Actual Average Record
Temperature  
Mean Temperature 36 °F -  
Max Temperature 39 °F 45 °F 68 °F (2011)
Min Temperature 32 °F 26 °F 15 °F (2000)
Degree Days  
Heating Degree Days 30    
Moisture  
Dew Point 33 °F    
Average Humidity 88    
Maximum Humidity 100    
Minimum Humidity 56    
Precipitation  
Precipitation 0.00 in - - ()
Sea Level Pressure  
Sea Level Pressure 30.05 in    
Wind  
Wind Speed 11 mph (SSW)    
Max Wind Speed 17 mph    
Max Gust Speed 18 mph    
Visibility 6 miles    
Events Snow    
Averages and records for this station are not official NWS values.
T = Trace of Precipitation, MM = Missing Value Source: NWS Daily Summary

Daily Weather History Graph

Daily Weather History Graph

Search for Another Location

Airport:

Trip Planner

Search our weather history database for the weather conditions in past years. The results will help you decide how hot, cold, wet, or windy it might be!

Date:

Astronomy

Dec. 31, 2012 Rise Set
Actual Time 7:42 AM CST 5:26 PM CST
Civil Twilight 7:14 AM CST 5:55 PM CST
Nautical Twilight 6:41 AM CST 6:27 PM CST
Astronomical Twilight 6:10 AM CST 6:58 PM CST
Moon 8:51 PM CST (12/31) 9:30 AM CST (12/31)
Length of Visible Light 10h 40m
Length of Day
9h 43m
Waning Gibbous, 90% of the Moon is Illuminated
Dec 31
Waning Gibbous
Jan 4
Last Quarter
Jan 11
New
Jan 18
First Quarter
Jan 26
Full

Hourly Weather History & Observations

Time (CST) Temp. Windchill Dew Point Humidity Pressure Visibility Wind Dir Wind Speed Gust Speed Precip Events Conditions
12:15 AM 39.2 °F 31.2 °F 24.8 °F 56% 30.11 in 10.0 mi SSW 13.8 mph - N/A   Clear
12:35 AM 37.4 °F 29.3 °F 24.8 °F 60% 30.11 in 10.0 mi SSW 12.7 mph - N/A   Clear
12:55 AM 37.4 °F 28.9 °F 26.6 °F 65% 30.11 in 10.0 mi SSW 13.8 mph 18.4 mph N/A   Clear
1:15 AM 37.4 °F 30.3 °F 26.6 °F 65% 30.09 in 10.0 mi South 10.4 mph - N/A   Clear
1:35 AM 37.4 °F 29.8 °F 26.6 °F 65% 30.08 in 10.0 mi South 11.5 mph - N/A   Clear
1:55 AM 37.4 °F 29.8 °F 26.6 °F 65% 30.09 in 10.0 mi South 11.5 mph - N/A   Clear
2:15 AM 37.4 °F 29.8 °F 28.4 °F 70% 30.10 in 10.0 mi South 11.5 mph - N/A   Clear
2:35 AM 37.4 °F 29.3 °F 28.4 °F 70% 30.10 in 10.0 mi South 12.7 mph - N/A   Clear
2:55 AM 37.4 °F 29.3 °F 30.2 °F 75% 30.08 in 10.0 mi South 12.7 mph - N/A   Clear
3:15 AM 37.4 °F 29.8 °F 30.2 °F 75% 30.09 in 10.0 mi South 11.5 mph - N/A   Clear
3:35 AM 37.4 °F 30.3 °F 30.2 °F 75% 30.08 in 10.0 mi South 10.4 mph - N/A   Clear
3:55 AM 37.4 °F 30.3 °F 30.2 °F 75% 30.08 in 10.0 mi South 10.4 mph - N/A   Clear
4:15 AM 37.4 °F 29.8 °F 30.2 °F 75% 30.07 in 10.0 mi South 11.5 mph - N/A   Clear
4:35 AM 37.4 °F 29.8 °F 32.0 °F 81% 30.07 in 10.0 mi South 11.5 mph 18.4 mph N/A   Clear
4:55 AM 37.4 °F 29.3 °F 32.0 °F 81% 30.07 in 10.0 mi South 12.7 mph - N/A   Clear
6:20 AM 37.4 °F 29.8 °F 33.8 °F 87% 30.02 in 7.0 mi South 11.5 mph - N/A   Overcast
6:50 AM 37.4 °F 30.3 °F 35.6 °F 93% 30.01 in 5.0 mi SSE 10.4 mph - N/A   Overcast
7:50 AM 35.6 °F 26.2 °F 33.8 °F 93% 30.03 in 3.0 mi South 15.0 mph - N/A Snow Light Snow
9:50 AM 33.8 °F 27.0 °F 33.8 °F 100% 30.04 in 1.8 mi SE 8.1 mph - N/A   Overcast
10:50 AM 37.4 °F 28.9 °F 35.6 °F 93% 30.03 in 2.0 mi SSE 13.8 mph - N/A   Overcast
11:57 AM 37.4 °F 28.9 °F 37.4 °F 100% 30.00 in 1.8 mi SSE 13.8 mph - N/A   Overcast
12:50 PM 37.4 °F 30.3 °F 37.4 °F 100% 29.96 in 4.0 mi South 10.4 mph - N/A   Overcast
1:50 PM 37.4 °F 29.3 °F 37.4 °F 100% 29.93 in 3.0 mi South 12.7 mph - N/A   Overcast
2:50 PM 37.4 °F 32.1 °F 37.4 °F 100% 29.94 in 2.0 mi South 6.9 mph - N/A   Overcast
3:50 PM 37.4 °F 32.8 °F 37.4 °F 100% 29.94 in 1.5 mi SW 5.8 mph - N/A   Overcast
4:50 PM 39.2 °F - 37.4 °F 93% 29.96 in 1.5 mi Calm Calm - N/A   Overcast
5:50 PM 39.2 °F - 39.2 °F 100% 29.97 in 1.8 mi Calm Calm - N/A   Overcast
6:50 PM 39.2 °F - 39.2 °F 100% 30.00 in 2.0 mi Calm Calm - N/A   Overcast
7:50 PM 39.2 °F 34.2 °F 39.2 °F 100% 30.02 in 5.0 mi WNW 6.9 mph - N/A   Overcast
8:15 PM 37.4 °F 32.8 °F 37.4 °F 100% 30.02 in 7.0 mi NW 5.8 mph - N/A   Overcast
8:35 PM 37.4 °F 32.8 °F 37.4 °F 100% 30.02 in 7.0 mi NW 5.8 mph - N/A   Overcast
8:50 PM 37.4 °F 32.1 °F 37.4 °F 100% 30.04 in 10.0 mi WNW 6.9 mph - N/A   Overcast
9:15 PM 37.4 °F 31.4 °F 35.6 °F 93% 30.03 in 5.0 mi NW 8.1 mph - N/A   Overcast
9:35 PM 35.6 °F 27.5 °F 35.6 °F 100% 30.04 in 4.0 mi WNW 11.5 mph - N/A   Overcast
9:55 PM 35.6 °F 28.0 °F 35.6 °F 100% 30.05 in 3.0 mi NW 10.4 mph - N/A   Overcast
10:15 PM 35.6 °F 26.2 °F 35.6 °F 100% 30.06 in 4.0 mi NNW 15.0 mph - N/A   Overcast
10:35 PM 33.8 °F 23.2 °F 33.8 °F 100% 30.07 in 3.0 mi NNW 17.3 mph - N/A   Overcast
10:55 PM 33.8 °F 23.5 °F 33.8 °F 100% 30.08 in 2.5 mi NNW 16.1 mph - N/A   Overcast
11:15 PM 32.0 °F 21.2 °F 32.0 °F 100% 30.09 in 3.0 mi NNW 16.1 mph - N/A   Overcast
11:35 PM 32.0 °F 21.2 °F 32.0 °F 100% 30.09 in 5.0 mi North 16.1 mph - N/A   Overcast
11:55 PM 32.0 °F 21.2 °F 32.0 °F 100% 30.10 in 7.0 mi NNW 16.1 mph - N/A   Overcast